Location: Newark
(52.3735°N, 16.9806°E)
Time: 23:46:58
(UTC+00:00)

Nauka - Visible Passes

Search period start: 28 September 2021 00:00
Search period end: 08 October 2021 00:00
Orbit: 417 x 423 km, 51.6° (Epoch: 28 September)

Date Brightness Start Highest point End Pass type
(mag) Time Alt. Az. Time Alt. Az. Time Alt. Az.
28 Sep ? 17:30:09 10° W 17:33:31 77° S 17:36:12 15° E visible
28 Sep ? 19:07:00 10° W 19:09:10 29° WSW 19:09:10 29° WSW visible
29 Sep ? 18:19:38 10° W 18:22:53 46° SSW 18:23:38 38° SSE visible
30 Sep ? 17:32:17 10° W 17:35:37 58° SSW 17:38:08 16° ESE visible
30 Sep ? 19:09:29 10° W 19:11:06 18° WSW 19:11:06 18° WSW visible
01 Oct ? 18:21:55 10° W 18:24:48 26° SSW 18:25:39 24° S visible
02 Oct ? 17:34:28 10° W 17:37:35 35° SSW 17:40:14 13° SE visible
03 Oct ? 18:24:44 10° WSW 18:26:31 14° SW 18:27:52 11° SSW visible
04 Oct ? 17:36:52 10° W 17:39:21 19° SW 17:41:50 10° SSE visible
05 Oct ? 16:49:15 10° W 16:52:07 26° SSW 16:55:01 10° SSE visible
07 Oct ? 16:52:01 10° WSW 16:53:46 14° SW 16:55:31 10° S visible
